Regional Weather Roundup
Issued by NWS

Home | Current Version | Previous Version | Text Only | Print | Product List | Glossary Off
Versions: 1 2 3 4 5 6 7 8 9 10 11 12 13 14 15 16 17 18 19 20 21 22 23 24 25 26 27 28 29 30 31 32 33 34 35 36 37 38 39 40 41 42 43 44 45 46 47 48 49 50

000
ASUS45 KTFX 232019
RWRMT
MONTANA HOURLY WEATHER ROUNDUP
NATIONAL WEATHER SERVICE GREAT FALLS MT
219 PM MDT THU OCT 23 2014

NOTE: "FAIR" INDICATES FEW OR NO CLOUDS BELOW 12000 FEET WITH NO
SIGNIFICANT WEATHER AND/OR OBSTRUCTIONS TO VISIBILITY.

* THESE STATIONS ARE NOT UNDER NWS QUALITY CONTROL. THEY DO NOT
   REPORT WEATHER SUCH AS PRECIPITATION OR FOG.

MTZ001>007-043-232100-
WEST OF THE DIVIDE
CITY           SKY/WX    TMP DP  RH WIND       PRES   REMARKS
KALISPELL      CLOUDY    54  48  80 SE9       29.80F
MISSOULA       CLOUDY    61  43  52 SE9       29.87F
BUTTE          CLOUDY    57  34  42 SW9       29.97F
MULLAN PASS    LGT RAIN  39  39 100 S10G21    29.84F VSB 1/2  WCI  32
* ESSEX        N/A       45  44  96 NW5        N/A
* LINCOLN      N/A       51  42  71 SW2        N/A
* LOOKOUT PASS N/A       46  44  93 S3G11      N/A
* POLSON       N/A       55  51  86 SW2        N/A
* RONAN APT    CLOUDY    61  45  56 S6         N/A
* SEELEY LAKE  N/A       54  42  64 N2         N/A
* THOMP F APT  CLOUDY    52  26  36 S11G19     N/A
$$

MTZ008-052>055-232100-
SOUTHWEST MONTANA
CITY           SKY/WX    TMP DP  RH WIND       PRES   REMARKS
BOZEMAN        PTSUNNY   63  30  29 SW14G26   29.95F
DILLON         PTSUNNY   61  34  36 SW15G24   29.96F
W YELLOWSTONE  CLOUDY    48  27  44 SW13G21   30.11F
* THREE FORKS  CLOUDY    66  39  37 SW16G21    N/A
* BOULDER HILL N/A       56  32  40 SW20G26    N/A
* MONIDA PASS  N/A       48  26  42 SE17G25    N/A
* RAYNOLDS PAS N/A       50  37  61 S9         N/A
* WHITEHALL    N/A       62  35  37 SW15G30    N/A
* WISE RIVER   N/A       53  38  57 N9G16      N/A
$$

MTZ009>010-012-014-046-048-049-054-232100-
EAST SLOPES AND CENTRAL MONTANA
CITY           SKY/WX    TMP DP  RH WIND       PRES   REMARKS
CUT BANK       PTCLDY    61  37  41 SW25G33   29.75F
GREAT FALLS    CLOUDY    61  37  41 SW25G31   29.80F
HELENA         CLOUDY    66  36  33 SW9       29.87F
MALMSTROM AFB  CLOUDY    61  37  41 SW28G37   29.82S
* CONRAD       CLOUDY    61  43  52 S22G30     N/A
* DEARBORN     N/A       63  37  38 S13G26     N/A
* EAST GLACIER N/A       46  42  86 W15G20     N/A
* MONARCH      N/A       56  26  32 SW16G29    N/A
* PENDROY      N/A       58  36  44 SW13G23    N/A
* ROGERS PASS  N/A       49  36  61 E10G16     N/A
* SAINT MARY   N/A       42  39  89 S7G16      N/A
* SWEET GRASS  N/A       60  37  43 SW19G26    N/A
* WHITE SULPH  N/A       58  33  39 SW20G28    N/A
$$

MTZ011-013-016-021-035-040-045-047-050-051-232100-
NORTH CENTRAL MONTANA
CITY           SKY/WX    TMP DP  RH WIND       PRES   REMARKS
HAVRE          CLOUDY    63  39  41 SW16      29.76S
LEWISTOWN      CLOUDY    63  36  37 SW21G31   29.85F
* CHINOOK      CLOUDY    63  37  38 SW12      29.75S
* FORT BENTON  CLOUDY    63  37  38 SW18G25   29.79S
* CHESTER      N/A       60  39  46 SW12G21    N/A
* DENTON       N/A       63  36  37 SE6        N/A
* GEYSER       N/A       63  34  34 W17G27     N/A
* JUDITH GAP   N/A       59  35  41 SW22G29    N/A
* LOMA         N/A       63  39  41 SW22G28    N/A
$$

MTZ017>020-022>027-061-062-232100-
NORTHEAST MONTANA
CITY           SKY/WX    TMP DP  RH WIND       PRES   REMARKS
GLASGOW        PTSUNNY   68  36  31 W14       29.76F
GLENDIVE       PTSUNNY   61  32  34 S8        29.83F
JORDAN         CLOUDY    72  34  25 W14G22    29.79F
SIDNEY         CLOUDY    64  36  35 S3        29.80F
WOLF POINT     PTSUNNY   66  37  34 SW5       29.77F
* BEAVER HILL  N/A       64  30  28 SW12G20    N/A
* CIRCLE       N/A       69  38  32 W14        N/A
* LINDSAY DVD  N/A       67  32  27 W14G20     N/A
* NAVAJO       N/A       62  36  38 SW17G22    N/A
$$

MTZ028>042-056>058-232100-
SOUTHCENTRAL AND SOUTHEAST MONTANA
CITY           SKY/WX    TMP DP  RH WIND       PRES   REMARKS
BAKER          PTSUNNY   68  28  22 W15       29.87F
BILLINGS       PTSUNNY   70  28  21 W10G24    29.87F
LIVINGSTON     PTSUNNY   66  27  23 SW31G46   29.90F
MILES CITY     CLOUDY    66  30  26 W7        29.84F
* LAUREL APT   PTCLDY    70  28  21 S8         N/A
* ROUNDUP APT  CLOUDY    66  32  28 SW16G21    N/A
* ALZADA       N/A       66  26  22 SW7        N/A
* HYSHAM       N/A       66  32  28 W9G16      N/A
* LAME DEER    N/A       66  32  28 SW8G16     N/A
* REED POINT   N/A       70  34  27 W13        N/A
* ROSCOE HILL  N/A       63  22  21 SW8G28     N/A
$$

REGIONAL REPORTS...DAKOTAS
CITY           SKY/WX    TMP DP  RH WIND       PRES   REMARKS
WILLISTON      CLOUDY    61  36  39 SW13      29.78S
DICKINSON      PTSUNNY   73  25  17 SW16      29.81F
BEACH          N/A       66  30  26 W15G23    29.85S
CROSBY         SUNNY     59  36  42 SW12      29.75F
TIOGA          SUNNY     61  32  34 SW10      29.80F
BISMARCK       SUNNY     73  28  19 SW12      29.82F
GRAND FORKS    PTCLDY    70  36  29 SW13      29.81F
FARGO          SUNNY     70  39  32 S14       29.85F
BUFFALO SD     PTSUNNY   70  25  18 SW13      29.82F
RAPID CITY     CLOUDY    66  30  26 SE9       29.89F
$$

REGIONAL REPORTS...WYOMING/IDAHO/WASHINGTON
CITY           SKY/WX    TMP DP  RH WIND       PRES   REMARKS
GILLETTE       PTCLDY    70  25  18 VRB7      29.93F
SHERIDAN       PTCLDY    75  28  18 NE6       29.90F
CODY           PTSUNNY   70  27  20 W18G23    29.95F
YELLOWSTONE LA PTSUNNY   52  25  35 SW9       30.18F
SALMON         CLOUDY    63  36  37 S12       29.94F
MULLAN PASS    LGT RAIN  39  39 100 S10G21    29.84S VSB 1/2  WCI  32
SAND POINT     HVY RAIN  50  50 100 S6        29.76F
SPOKANE        CLOUDY    54  52  93 SW13      29.79S
$$

REGIONAL REPORTS...ALBERTA
CITY           SKY/WX    TMP DP  RH WIND       PRES   REMARKS
CALGARY        SUNNY     61  25  25 W10G23    29.57R
LETHBRIDGE     PTCLDY    63  37  38 SW26      29.66F
MEDICINE HAT   PTSUNNY   63  41  45 S12       29.66F
EDMONTON       SUNNY     61  32  34 W12       29.43R
WATERTON GATE  N/A       45  41  86 SW17G24    N/A
CARDSTON       N/A       57  37  47 SW13G18    N/A
MILK RIVER     N/A       61  39  44 SW25G35    N/A
$$

REGIONAL REPORTS...SASKATCHEWAN
CITY           SKY/WX    TMP DP  RH WIND       PRES   REMARKS
SWIFT CURRENT  PTCLDY    57  43  60 SW17      29.64F
MOOSE JAW      PTSUNNY   59  41  51 SW12G21   29.65F
REGINA         PTSUNNY   59  41  51 S10       29.66F
VAL MARIE      N/A       63  39  41 W20        N/A
ASSINIBOIA     N/A       61  36  39 W22G30     N/A
CORONACH       N/A       66  36  33 SW16       N/A

$$




USA.gov is the U.S. government's official web portal to all federal, state and local government web resources and services.